Nashua, NH

10:06 PM EDT on August 29, 2016 (GMT -0400)
Boire

Weather History for KASH - October, 2011

Change the Weather History Date:

Wednesday, October 19, 2011

  Actual Average Record
Temperature  
Mean Temperature 49 °F -  
Max Temperature 55 °F 58 °F 83 °F (1963)
Min Temperature 43 °F 35 °F 15 °F (1974)
Degree Days  
Heating Degree Days 16    
Moisture  
Dew Point 50 °F    
Average Humidity 91    
Maximum Humidity 94    
Minimum Humidity 82    
Precipitation  
Precipitation 0.72 in - - ()
Sea Level Pressure  
Sea Level Pressure 29.85 in    
Wind  
Wind Speed 4 mph (NNE)    
Max Wind Speed 10 mph    
Max Gust Speed -    
Visibility 4 miles    
Events Rain    
Averages and records for this station are not official NWS values.
T = Trace of Precipitation, MM = Missing Value Source: NWS Daily Summary

Daily Weather History Graph

Daily Weather History Graph

Search for Another Location

Airport or City:

Trip Planner

Search our weather history database for the weather conditions in past years. The results will help you decide how hot, cold, wet, or windy it might be!

Date:

Astronomy

Oct. 19, 2011 Rise Set
Actual Time 7:03 AM EDT 5:57 PM EDT
Civil Twilight 6:35 AM EDT 6:26 PM EDT
Nautical Twilight 6:02 AM EDT 6:59 PM EDT
Astronomical Twilight 5:29 AM EDT 7:31 PM EDT
Moon 11:36 PM EDT (10/19) 1:36 PM EDT (10/19)
Length of Visible Light 11h 51m
Length of Day
10h 53m
Waning Gibbous, 55% of the Moon is Illuminated
Oct 19
Waning Gibbous
Oct 19
Last Quarter
Oct 26
New
Nov 2
First Quarter
Nov 10
Full

Hourly Weather History & Observations

Time (EDT) Temp. Windchill Dew Point Humidity Pressure Visibility Wind Dir Wind Speed Gust Speed Precip Events Conditions
12:51 AM 45.0 °F - 41.9 °F 89% 29.99 in 10.0 mi Calm Calm - N/A   Clear
1:51 AM 43.9 °F 41.3 °F 41.9 °F 93% 29.99 in 10.0 mi NNW 4.6 mph - N/A   Clear
2:51 AM 45.0 °F - 41.9 °F 89% 29.95 in 10.0 mi Calm Calm - N/A   Clear
3:51 AM 45.0 °F 41.8 °F 41.9 °F 89% 29.99 in 10.0 mi NW 5.8 mph - N/A   Clear
4:51 AM 45.9 °F - 41.9 °F 86% 29.97 in 10.0 mi Calm Calm - N/A   Clear
5:51 AM 45.9 °F - 43.0 °F 90% 29.98 in 10.0 mi Calm Calm - N/A   Partly Cloudy
6:51 AM 45.9 °F - 43.9 °F 93% 29.99 in 10.0 mi Calm Calm - N/A   Partly Cloudy
7:51 AM 47.8 °F - 43.9 °F 86% 30.01 in 10.0 mi Calm Calm - N/A   Partly Cloudy
8:51 AM 50.0 °F - 45.0 °F 83% 30.02 in 10.0 mi NW 6.9 mph - N/A   Overcast
9:51 AM 50.9 °F - 45.9 °F 83% 30.01 in 10.0 mi WNW 5.8 mph - N/A   Overcast
10:51 AM 52.9 °F - 47.8 °F 83% 29.99 in 10.0 mi Calm Calm - N/A   Mostly Cloudy
11:51 AM 54.9 °F - 50.0 °F 84% 29.96 in 10.0 mi Calm Calm - 0.00 in Rain Light Rain
12:13 PM 55.4 °F - 50.0 °F 82% 29.94 in 5.0 mi NNE 4.6 mph - 0.00 in Rain Light Rain
12:28 PM 55.4 °F - 50.0 °F 82% 29.94 in 1.8 mi Calm Calm - 0.04 in Rain Heavy Rain
12:51 PM 52.9 °F - 50.0 °F 90% 29.93 in 3.0 mi Variable 4.6 mph - 0.11 in Rain Rain
12:55 PM 53.6 °F - 51.8 °F 94% 29.92 in 2.5 mi Calm Calm - 0.00 in Rain Rain
1:16 PM 53.6 °F - 50.0 °F 88% 29.90 in 3.0 mi Variable 5.8 mph - 0.04 in Rain Rain
1:35 PM 53.6 °F - 50.0 °F 88% 29.90 in 2.5 mi ENE 5.8 mph - 0.08 in Rain Rain
1:56 PM 53.6 °F - 50.0 °F 88% 29.91 in 3.0 mi Variable 4.6 mph - 0.01 in Rain Rain
2:13 PM 53.6 °F - 50.0 °F 88% 29.90 in 1.8 mi ENE 6.9 mph - 0.05 in Rain Rain
2:51 PM 52.9 °F - 50.9 °F 93% 29.88 in 2.5 mi NE 8.1 mph - 0.13 in Rain Rain
3:37 PM 53.6 °F - 51.8 °F 94% 29.85 in 1.8 mi Variable 6.9 mph - 0.07 in Rain Light Rain
3:51 PM 52.9 °F - 50.9 °F 93% 29.86 in 2.0 mi NNE 8.1 mph - 0.08 in Rain Rain
4:09 PM 53.6 °F - 51.8 °F 94% 29.83 in 3.0 mi NNE 6.9 mph - 0.03 in Rain Light Rain
4:16 PM 53.6 °F - 51.8 °F 94% 29.82 in 1.8 mi NNE 9.2 mph - 0.05 in Rain Heavy Rain
4:51 PM 52.9 °F - 50.9 °F 93% 29.84 in 1.2 mi NNE 9.2 mph - 0.10 in Rain Rain
5:09 PM 53.6 °F - 51.8 °F 94% 29.82 in 1.0 mi NE 9.2 mph - 0.04 in Rain Rain
5:22 PM 53.6 °F - 51.8 °F 94% 29.82 in 1.2 mi NNE 10.4 mph - 0.06 in Rain Rain
5:44 PM 53.6 °F - 51.8 °F 94% 29.81 in 1.0 mi Variable 4.6 mph - 0.11 in Rain Rain
5:51 PM 52.9 °F - 50.9 °F 93% 29.83 in 1.2 mi Variable 5.8 mph - 0.12 in Rain Rain
5:58 PM 53.6 °F - 51.8 °F 94% 29.82 in 1.8 mi NNE 6.9 mph - 0.02 in Rain Heavy Rain
6:05 PM 53.6 °F - 51.8 °F 94% 29.81 in 2.0 mi NNE 8.1 mph - 0.03 in Rain Rain
6:51 PM 52.9 °F - 50.9 °F 93% 29.80 in 2.5 mi North 10.4 mph - 0.09 in Rain Light Rain
7:05 PM 53.6 °F - 51.8 °F 94% 29.79 in 3.0 mi NNE 10.4 mph - 0.01 in Rain Light Rain
7:40 PM 53.6 °F - 51.8 °F 94% 29.76 in 2.5 mi North 8.1 mph - 0.02 in Rain Light Rain
7:51 PM 52.9 °F - 50.9 °F 93% 29.77 in 2.0 mi NNE 8.1 mph - 0.03 in Rain Light Rain
8:15 PM 53.6 °F - 51.8 °F 94% 29.74 in 4.0 mi NNE 8.1 mph - 0.00 in Rain Light Rain
8:30 PM 53.6 °F - 51.8 °F 94% 29.75 in 2.0 mi NNE 6.9 mph - 0.02 in Rain Rain
8:51 PM 54.0 °F - 52.0 °F 93% 29.75 in 2.5 mi Variable 6.9 mph - 0.02 in Rain Light Rain
8:59 PM 53.6 °F - 51.8 °F 94% 29.74 in 3.0 mi NNE 6.9 mph - 0.01 in Rain Light Rain
9:20 PM 53.6 °F - 51.8 °F 94% 29.74 in 2.5 mi NNE 5.8 mph - 0.01 in Rain Light Rain
9:34 PM 55.4 °F - 53.6 °F 94% 29.74 in 1.5 mi NNE 6.9 mph - 0.02 in Rain Light Rain
9:51 PM 54.9 °F - 52.9 °F 93% 29.74 in 3.0 mi NNE 6.9 mph - 0.03 in Rain Light Rain
10:00 PM 55.4 °F - 53.6 °F 94% 29.72 in 2.0 mi NNE 5.8 mph - 0.00 in Rain Light Rain
10:15 PM 55.4 °F - 53.6 °F 94% 29.72 in 1.8 mi NNE 5.8 mph - 0.00 in Rain Light Rain
10:26 PM 55.4 °F - 53.6 °F 94% 29.72 in 2.0 mi Variable 4.6 mph - 0.00 in Rain Light Rain
10:51 PM 54.9 °F - 52.9 °F 93% 29.71 in 2.0 mi NE 6.9 mph - 0.01 in Rain Light Rain
11:06 PM 55.4 °F - 53.6 °F 94% 29.69 in 3.0 mi NE 9.2 mph - 0.00 in   Overcast
11:51 PM 54.9 °F - 52.9 °F 93% 29.67 in 5.0 mi Variable 5.8 mph - 0.00 in   Overcast